EW5833 Weather Reports


time (UTC)temp
C
wind
direction
speed
KPH
gust
KPH
rain 1hr
cm
rain 24hr
cm
rain mn
cm
humidity
%
barometer
mb
20260509013535 11 0 0.0 1.6 0.00 0.10 0.10 64 1006.6
20260509011708 12 0 0.0 1.6 0.00 0.10 0.10 61 1006.4
20260509010707 12 0 0.0 3.2 0.00 0.10 0.10 58 1006.3
20260509005709 12 0 0.0 1.6 0.00 0.10 0.10 50 1006.2
20260509004707 13 0 0.0 3.2 0.00 0.10 0.10 44 1006.1
20260509003705 13 278 0.0 3.2 0.00 0.10 0.10 40 1006.1
20260509003143 14 0 0.0 1.6 0.00 0.10 0.10 41 1006.1
20260509002705 14 0 0.0 1.6 0.00 0.10 0.10 41 1006.1
20260509001705 15 0 0.0 3.2 0.00 0.10 0.10 37 1006.0
20260509000706 15 0 0.0 3.2 0.00 0.10 0.10 39 1005.9
20260509000636 15 0 0.0 3.2 0.00 0.10 0.10 40 1006.0
20260508235705 15 0 0.0 3.2 0.00 0.10 0.10 40 1006.0
20260508235147 16 0 0.0 3.2 0.00 0.10 0.10 37 1006.0
20260508234706 16 0 0.0 3.2 0.00 0.10 0.10 37 1006.0
20260508234141 16 0 1.6 6.4 0.00 0.10 0.10 35 1006.0
20260508233705 16 0 1.6 6.4 0.00 0.10 0.10 35 1006.0
20260508233624 16 289 3.2 9.7 0.00 0.10 0.10 34 1005.9
20260508232913 16 289 3.2 9.7 0.00 0.10 0.10 34 1005.9
20260508231703 16 226 3.2 8.0 0.00 0.10 0.10 34 1006.0
20260508230703 17 224 0.0 6.4 0.00 0.10 0.10 35 1006.0
20260508230136 17 0 1.6 8.0 0.00 0.10 0.10 34 1006.1
20260508225913 17 0 1.6 8.0 0.00 0.10 0.10 34 1006.1
20260508225615 17 138 1.6 11.3 0.00 0.10 0.10 34 1006.1
20260508224911 17 138 1.6 11.3 0.00 0.10 0.10 34 1006.1
20260508224139 16 244 1.6 6.4 0.00 0.10 0.10 34 1006.2
20260508223911 16 244 1.6 6.4 0.00 0.10 0.10 34 1006.2
20260508222702 16 278 1.6 6.4 0.00 0.10 0.10 34 1006.2
20260508221702 17 0 1.6 9.7 0.00 0.10 0.10 32 1006.3
20260508220701 17 219 3.2 14.5 0.00 0.10 0.10 31 1006.2
20260508220138 17 264 1.6 8.0 0.00 0.10 0.10 32 1006.3
20260508215701 17 264 1.6 8.0 0.00 0.10 0.10 32 1006.3
20260508215145 17 232 1.6 9.7 0.00 0.10 0.10 31 1006.4
20260508214912 17 232 1.6 9.7 0.00 0.10 0.10 31 1006.4
20260508213703 17 205 3.2 6.4 0.00 0.10 0.10 34 1006.5
20260508212704 17 247 3.2 11.3 0.00 0.10 0.10 31 1006.5
20260508211702 17 198 3.2 9.7 0.00 0.10 0.10 31 1006.4
20260508210702 17 234 3.2 11.3 0.00 0.10 0.10 31 1006.6
20260508210146 17 226 3.2 11.3 0.00 0.10 0.10 33 1006.6
20260508205702 17 226 3.2 11.3 0.00 0.10 0.10 33 1006.6
20260508205140 17 0 3.2 9.7 0.00 0.10 0.10 33 1006.7
20260508204914 17 0 3.2 9.7 0.00 0.10 0.10 33 1006.7
20260508203701 17 0 3.2 9.7 0.00 0.10 0.10 33 1007.1
20260508202701 17 279 4.8 16.1 0.00 0.10 0.10 33 1007.1
20260508202138 17 261 3.2 14.5 0.00 0.10 0.10 35 1007.3
20260508201701 17 261 3.2 14.5 0.00 0.10 0.10 35 1007.3
20260508200702 17 302 3.2 12.9 0.00 0.10 0.10 32 1007.5
20260508195702 17 202 3.2 14.5 0.00 0.10 0.10 33 1007.6
20260508194702 17 311 1.6 6.4 0.00 0.10 0.10 35 1007.7
20260508194141 16 324 1.6 6.4 0.00 0.10 0.10 33 1007.9
20260508193914 16 324 1.6 6.4 0.00 0.10 0.10 33 1007.9
20260508193145 16 258 4.8 11.3 0.00 0.10 0.10 30 1008.0
20260508192914 16 258 4.8 11.3 0.00 0.10 0.10 30 1008.0
20260508192155 16 318 4.8 12.9 0.00 0.10 0.10 31 1008.0
20260508191701 16 318 4.8 12.9 0.00 0.10 0.10 31 1008.0
20260508190705 16 150 3.2 9.7 0.00 0.10 0.10 32 1008.1
20260508185703 16 70 3.2 14.5 0.00 0.10 0.10 31 1008.2
20260508185630 16 206 3.2 8.0 0.00 0.10 0.10 33 1008.4
20260508184913 16 206 3.2 8.0 0.00 0.10 0.10 33 1008.4
20260508184154 16 233 1.6 11.3 0.00 0.10 0.10 31 1008.5
20260508183702 16 233 1.6 11.3 0.00 0.10 0.10 31 1008.5
20260508182700 16 223 3.2 9.7 0.00 0.10 0.10 32 1008.5
20260508182134 16 228 4.8 12.9 0.00 0.10 0.10 33 1008.6
20260508181913 16 228 4.8 12.9 0.00 0.10 0.10 33 1008.6
20260508181434 15 315 6.4 19.3 0.00 0.10 0.10 32 1008.8
20260508181246 15 208 4.8 11.3 0.00 0.10 0.10 32 1008.7
20260508180913 15 208 4.8 11.3 0.00 0.10 0.10 32 1008.7
20260508180525 15 315 6.4 19.3 0.00 0.10 0.10 32 1008.8
20260508175159 15 0 6.4 19.3 0.00 0.10 0.10 35 1009.0
20260508174701 15 0 6.4 19.3 0.00 0.10 0.10 35 1009.0
20260508174626 16 318 4.8 14.5 0.00 0.10 0.10 34 1009.2
20260508173911 16 318 4.8 14.5 0.00 0.10 0.10 34 1009.2
20260508172701 15 234 3.2 12.9 0.00 0.10 0.10 35 1009.3
20260508171701 15 0 3.2 11.3 0.00 0.10 0.10 35 1009.5
20260508170702 15 118 3.2 11.3 0.00 0.10 0.10 36 1009.6
20260508165700 15 260 4.8 17.7 0.00 0.10 0.10 35 1009.8
20260508164702 15 188 4.8 11.3 0.00 0.10 0.10 33 1009.9
20260508164140 14 341 3.2 11.3 0.00 0.10 0.10 33 1010.1
20260508163913 14 341 3.2 11.3 0.00 0.10 0.10 33 1010.1
20260508163155 14 316 3.2 8.0 0.00 0.10 0.10 33 1010.2
20260508162702 14 316 3.2 8.0 0.00 0.10 0.10 33 1010.2
20260508161700 14 199 4.8 9.7 0.00 0.10 0.10 37 1010.3
20260508160703 14 329 3.2 12.9 0.00 0.10 0.10 37 1010.3
20260508160139 14 200 3.2 11.3 0.00 0.10 0.10 34 1010.4
20260508155703 14 200 3.2 11.3 0.00 0.10 0.10 34 1010.4
20260508154701 14 139 3.2 9.7 0.00 0.10 0.10 38 1010.3
20260508154628 13 0 3.2 11.3 0.00 0.10 0.10 38 1010.4
20260508153701 13 0 3.2 11.3 0.00 0.10 0.10 38 1010.4
20260508152703 14 122 3.2 9.7 0.00 0.10 0.10 39 1010.4
20260508151702 13 149 1.6 9.7 0.00 0.10 0.10 41 1010.6
20260508150702 13 152 3.2 11.3 0.00 0.10 0.10 42 1010.7
20260508150147 13 125 1.6 8.0 0.00 0.10 0.10 40 1010.7
20260508145701 13 125 1.6 8.0 0.00 0.10 0.10 40 1010.7
20260508144702 13 121 1.6 9.7 0.00 0.10 0.10 45 1010.8
20260508143703 12 0 1.6 8.0 0.00 0.10 0.10 42 1010.8
20260508142702 12 0 3.2 9.7 0.00 0.10 0.10 46 1010.8
20260508142152 11 143 4.8 9.7 0.00 0.10 0.10 47 1011.0
20260508141701 11 143 4.8 9.7 0.00 0.10 0.10 47 1011.0
20260508140702 12 106 1.6 9.7 0.00 0.10 0.10 46 1011.0
20260508135704 11 127 3.2 9.7 0.00 0.10 0.10 41 1011.0
20260508135158 11 263 4.8 11.3 0.00 0.10 0.10 47 1011.1
20260508134704 11 263 4.8 11.3 0.00 0.10 0.10 47 1011.1
20260508133704 11 348 3.2 9.7 0.00 0.10 0.10 55 1011.0
20260508133546 11 288 1.6 6.4 0.00 0.10 0.10 53 1011.0
20260508132842 10 282 3.2 12.9 0.00 0.10 0.10 57 1011.0
20260508131703 11 288 1.6 6.4 0.00 0.10 0.10 53 1011.0
20260508130702 10 343 3.2 8.0 0.00 0.10 0.10 59 1011.0
20260508125702 10 105 1.6 6.4 0.00 0.10 0.10 58 1011.1
20260508125153 9 0 1.6 6.4 0.00 0.10 0.10 67 1011.2
20260508124703 9 0 1.6 6.4 0.00 0.10 0.10 67 1011.2
20260508123704 8 0 1.6 4.8 0.00 0.10 0.10 67 1011.0
20260508122703 8 125 3.2 6.4 0.00 0.10 0.10 69 1010.9
20260508121702 7 149 1.6 4.8 0.00 0.10 0.10 72 1010.9
20260508121146 6 137 1.6 3.2 0.00 0.10 0.10 81 1010.7
20260508120703 6 137 1.6 3.2 0.00 0.10 0.10 81 1010.7
20260508115702 5 135 0.0 3.2 0.00 0.10 0.10 95 1010.6
20260508115355 4 0 0.0 1.6 0.00 0.10 0.10 98 1010.6
20260508115240 4 0 0.0 1.6 0.00 0.10 0.10 98 1010.6
20260508113703 3 0 0.0 0.0 0.00 0.10 0.10 99 1010.5
20260508112703 2 0 0.0 0.0 0.00 0.10 0.10 99 1010.4
20260508111703 1 0 0.0 0.0 0.00 0.10 0.10 99 1010.5
20260508111617 1 0 0.0 0.0 0.00 0.10 0.10 99 1010.4
20260508110702 1 0 0.0 0.0 0.00 0.10 0.10 99 1010.4
20260508105701 1 0 0.0 0.0 0.00 0.10 0.10 99 1010.4
20260508104701 1 0 0.0 0.0 0.00 0.10 0.10 99 1010.4
20260508103702 1 0 0.0 0.0 0.00 0.10 0.10 99 1010.4
20260508102702 1 0 0.0 0.0 0.00 0.10 0.10 99 1010.4
20260508101702 1 0 0.0 0.0 0.00 0.10 0.10 99 1010.4
20260508100701 1 0 0.0 0.0 0.00 0.10 0.10 99 1010.4
20260508095702 1 0 0.0 0.0 0.00 0.10 0.10 99 1010.4
20260508095618 1 0 0.0 1.6 0.00 0.10 0.10 100 1010.5
20260508094702 1 0 0.0 1.6 0.00 0.10 0.10 100 1010.5
20260508093703 1 0 0.0 1.6 0.00 0.10 0.10 100 1010.6
20260508092703 1 0 0.0 0.0 0.00 0.10 0.10 100 1010.6
20260508092135 1 0 0.0 0.0 0.00 0.10 0.10 100 1010.7
20260508091912 1 0 0.0 0.0 0.00 0.10 0.10 100 1010.7
20260508091354 1 0 0.0 0.0 0.00 0.10 0.10 99 1010.7
20260508091235 1 0 0.0 0.0 0.00 0.10 0.10 99 1010.7
20260508090619 2 0 0.0 0.0 0.00 0.10 0.10 99 1010.7
20260508085701 2 0 0.0 0.0 0.00 0.10 0.10 99 1010.7
20260508085139 2 0 0.0 0.0 0.00 0.10 0.10 99 1010.8
20260508084701 2 0 0.0 0.0 0.00 0.10 0.10 99 1010.8
20260508083700 2 0 0.0 0.0 0.00 0.10 0.10 99 1010.8
20260508082703 2 0 0.0 0.0 0.00 0.10 0.10 98 1010.7
20260508081702 2 0 0.0 0.0 0.00 0.10 0.10 98 1010.7
20260508080702 2 0 0.0 3.2 0.00 0.10 0.10 98 1010.6
20260508075701 3 0 0.0 3.2 0.00 0.10 0.10 97 1010.6
20260508074703 3 0 0.0 1.6 0.00 0.10 0.10 97 1010.7
20260508073701 3 0 0.0 0.0 0.00 0.10 0.10 97 1010.6
20260508073145 3 0 0.0 0.0 0.00 0.10 0.10 96 1010.4
20260508072913 3 0 0.0 0.0 0.00 0.10 0.10 96 1010.4
20260508072623 3 0 0.0 0.0 0.00 0.10 0.10 95 1010.5
20260508071913 3 0 0.0 0.0 0.00 0.10 0.10 95 1010.5
20260508070701 3 0 0.0 3.2 0.00 0.10 0.10 94 1010.5
20260508065701 4 0 0.0 3.2 0.00 0.10 0.10 93 1010.7
20260508064701 4 0 1.6 6.4 0.00 0.10 0.10 92 1010.7
20260508063701 3 332 1.6 6.4 0.08 0.08 0.08 93 1011.2
20260508062701 3 0 0.0 0.0 0.08 0.08 0.08 92 1011.1
20260508062141 4 0 0.0 0.0 0.08 0.08 0.08 92 1011.0
20260508061702 4 0 0.0 0.0 0.08 0.08 0.08 92 1011.0
20260508060702 4 0 0.0 3.2 0.08 0.08 0.08 90 1011.0
20260508055701 5 357 3.2 8.0 0.08 0.08 0.08 86 1011.2
20260508054701 5 111 3.2 9.7 0.08 0.08 0.05 78 1010.6
20260508053702 5 0 0.0 3.2 0.00 0.00 0.00 78 1011.1
20260508052702 5 348 1.6 3.2 0.00 0.00 0.00 77 1011.0
20260508051701 5 0 1.6 4.8 0.00 0.00 0.00 78 1011.1
20260508050701 5 0 0.0 0.0 0.00 0.00 0.00 75 1011.3
20260508050145 5 0 0.0 3.2 0.00 0.00 0.00 75 1011.3
20260508045914 5 0 0.0 3.2 0.00 0.00 0.00 75 1011.3
20260508044701 5 100 0.0 4.8 0.00 0.00 0.00 75 1011.1
20260508043702 5 0 0.0 0.0 0.00 0.00 0.00 78 1011.4
20260508042701 5 0 0.0 0.0 0.00 0.00 0.00 77 1011.3
20260508041703 5 0 0.0 3.2 0.00 0.00 0.00 74 1011.1
20260508040703 5 333 0.0 6.4 0.00 0.00 0.00 76 1010.9
20260508035703 5 0 0.0 0.0 0.00 0.00 0.00 72 1010.8
20260508035143 5 0 0.0 1.6 0.00 0.00 0.00 70 1010.9
20260508034703 5 0 0.0 1.6 0.00 0.00 0.00 70 1010.9
20260508034147 5 0 0.0 0.0 0.00 0.00 0.00 74 1010.9
20260508033914 5 0 0.0 0.0 0.00 0.00 0.00 74 1010.9
20260508033148 5 0 0.0 0.0 0.00 0.00 0.00 72 1010.7
20260508032958 5 0 0.0 1.6 0.00 0.00 0.00 73 1010.9
20260508032914 5 0 0.0 0.0 0.00 0.00 0.00 72 1010.7
20260508032530 5 0 0.0 1.6 0.00 0.00 0.00 73 1010.9
20260508030703 5 0 0.0 0.0 0.00 0.00 0.00 73 1011.0
20260508025704 5 0 0.0 0.0 0.00 0.00 0.00 75 1011.1
20260508024704 5 0 0.0 0.0 0.00 0.00 0.00 72 1011.2
20260508023703 6 0 0.0 0.0 0.00 0.00 0.00 71 1011.2
20260508022702 6 0 0.0 1.6 0.00 0.00 0.00 67 1011.0
20260508021704 6 0 0.0 0.0 0.00 0.00 0.00 63 1011.0
20260508020703 7 0 0.0 0.0 0.00 0.00 0.00 62 1010.9
20260508015702 7 0 0.0 3.2 0.00 0.00 0.00 60 1010.9
20260508014707 7 0 1.6 9.7 0.00 0.00 0.00 58 1010.9
20260508013701 8 296 1.6 9.7 0.00 0.00 0.00 57 1010.8